TITAN 3C TRANSTAGE DEB

Satellite information

Favourite Embed

Satellite Type and Status

DEBRISIN ORBIT

Key statistics

Satellite TITAN 3C TRANSTAGE DEB at a glance.

Uptime

21974

Days in orbit

Revolutions

≈ 14.5

Per day

Orbit

LEO

Low Earth Orbit

Inclination

31.0

Latest

Satellite identification and parameters

Extended collection of information and parameters for TITAN 3C TRANSTAGE DEB.

Object identification

Identified? True

Debris? True

Object name: TITAN 3C TRANSTAGE DEB

International designator: 1965-082ML

Object number (NORAD): 3373

Object ID (CCSDS): 3373

Country: UNITED STATES OF AMERICA (US)

Current information (Y/N): Y

RCS size: SMALL

Orbital parameters

Period: 99.27 minutes

Inclination: 30.9725 deg

SMA: 7101.851 km

Apoapsis: 833.544 km

Periapsis: 613.888 km

RAAN: 165.0474 deg

Eccentricy: 0.01546467

Argument of periapsis: 74.4391 deg

Mean anomaly: 287.3244 deg

Mean motion: 14.50592581 rev/day

Mean motion (dot): 0.00013637 rev/day2

B* drag term: 0.0029123647 1/REarth

Two-line elements (TLE)

Creation date: Dec. 11, 2025, 7:14 p.m.

Reference frame: TEME

Reference center: EARTH

Epoch: Dec. 11, 2025, 2:14 p.m. UTC

TLE line 0: 0 TITAN 3C TRANSTAGE DEB

TLE line 1: 1 03373U 65082ML 25345.59311859 .00013637 00000-0 29124-2 0 9997

TLE line 2: 2 03373 30.9725 165.0474 0154647 74.4391 287.3244 14.50592581 23494

Live tracking on map

Real-time ground track for satellite TITAN 3C TRANSTAGE DEB.

In-orbit conjunctions

A list of the most updated potential collisions computed for object TITAN 3C TRANSTAGE DEB.

Target Orbit TCA Probability of collision Miss distance Type
COSMOS 1814 LEO 2025-06-06 22:03:47 0.001123701 17.0 (m) PAYLOAD
CZ-6A DEB SSO 2024-11-09 12:34:52 0.0001205208 710.0 (m) DEBRIS

Associated space launch

The OV2 (Orbiting Vehicle 2) series satellites were originally built for project ARENTS (Advanced Research Environmental Test Satellite), which was intended to obtain supporting data for the Vela program. After the cancellation of the ARENTS program, the already built hardware was reused for OV2, a low-cost series of experimental satellites, which were to be launched for free on Titan-3C test flights to very different orbits.

TITAN 3C TRANSTAGE DEB was lifted into orbit during the mission ‘Titan IIIC | OV2-1’, on board a Titan IIIC space rocket.

The launch took place on Oct. 15, 1965, 5:23 p.m. from Space Launch Complex 40.

For more information about the launch, click the button.

Launch to space Titan IIIC | OV2-1
Titan IIIC | OV2-1

Agency: N/A

Status: Launch Successful

Launch date: Oct. 15, 1965, 5:23 p.m. UTC

Rocket: Titan IIIC

Launch pad: Space Launch Complex 40

Location: Cape Canaveral SFS, FL, USA

...

Latest news about this satellite

There are no fresh news available about this satellite. Check back as we update our databases every day.


Newsletter sign-up

Weekly statistics, charts and insights to help you stay on top of the space industry.